Weather in Mirnyy

Russia / Voronezh Oblast     50°41′37″N   41°06′29″E
temp.,
°C
wind,
m/s
gust,
m/s
humid.,
%
clouds,
%
prec.,
mm/h
press.,
hPa
HPBL,
m
3 march, wed
wed300:000wnw4998100 0.3 1010435
03:000nw51095100 0.7 1011511
06:00−1nw6119580 0.1 1011531
09:00−1nnw7119289 0.4 1014939
12:00−1nnw71094100 0.4 1015852
15:00−1nnw7107898 0.6 1017983
18:00−2nw6107698 0.1 1019724
21:00−4wnw4108866 0.1 1020300
4 march, thu
thu400:00−4wsw511900 0.0 1018301
03:00−3wsw6139429 0.0 1018479
06:00−1w8138999 0.1 1016857
09:00−1wsw8148994 0.1 1015611
12:00+2wsw8148111 0.0 1013783
15:00+3wsw814676 0.0 1010874
18:00+2sw716710 0.0 1009528
21:00+2sw819750 0.0 1008568
5 march, fri
fri500:00+2sw9178380 0.0 1006660
03:00+3wsw8169490 0.3 1005577
06:00+3wsw81593100 0.5 1005642
09:00+2w81497100 1.7 1006668
12:00+1w61097100 0.4 1008534
15:00+2w5980100 0.5 1010902
18:000nw3592100 0.1 1011185
21:00−1e2294100 0.1 101381
6 march, sat
sat600:00−2ne4696100 0.6 1012327
03:00−2ne5895100 2.5 1012501
06:00−3nne5894100 1.8 1012514
09:00−3nne5687100 2.0 1014566
12:00−2n4577100 0.0 1015803
15:00−2nne336076 0.0 1015779
18:00−4nne11688 0.0 101521
21:00−4s34754 0.0 1016110
7 march, sun
sun700:00−5wnw598171 0.8 1017619
03:00−6nw6109082 0.8 1018734
06:00−7wnw488079 0.1 1019614
09:00−6w697139 0.1 1019818
12:00−3wsw8126764 0.0 10161030
15:00−2sw10156482 0.0 10131222
18:00−2sw9176398 0.0 10101138
21:00−2wsw10186499 0.0 10071210